Find Starlink 6275

NORAD ID: 56772 Int'l Des: 2023-078 Owner: SPXS Country: US Constellation: starlink operational
LEOCIRCULAR

リアルタイム位置

3D地球を読み込み中...

Starlink 6275について

説明を読み込み中...

次回通過

Passes for default location (London). Set your location on the main map for personalized predictions.

高度履歴

Loading altitude history...

軌道要素

1 56772U 23078F 26124.67422749 .00001130 00000-0 10246-3 0 9994
2 56772 69.9999 223.2720 0003272 268.4524 91.6261 14.98329668160573
Epoch: May 4, 2026 • Age: 15 hours

現在のステータス

高度 578.3 km
速度 7.57 km/s
衛星直下点 38.39°N, 53.57°E
打ち上げ日 May 31, 2023
運用期間 2.9 years
タイプ internet

技術仕様

分類 Payload
質量 305.00 kg
乾燥質量 290.00 kg
総質量 305.00 kg
長さ 0.20 m
直径 2.80 m
スパン 9.00 m
形状 Box + pan
製造者 SPXS
バスタイプ Starlink
フェーズステータス In Orbit
所有者/国 SPXS/US

Most Searched